Language: 


Des rapports , des résumés tant et plus, au choix de chacun....


Données statistiques de la station
Quotidien Rapport Avril 22, 2017 Unités:  Métrique    Anglais   les deux
« Précédent Jour
Suivant Jour »
Quotidien Hebdomadaire Mensuel Annuel Actuel
  Haut: Bas: Moyen:
Température: 15.1 °C 5.9 °C 10.8 °C
Pt de rosée: 9.0 °C 0.0 °C 6 °C
Humidité: 94 % 43 % 73 %
Vitesse du vent: 23.3 km/h 0.0 km/h 6.9 km/h
Rafales: 24.5 km/h - -
Vent:- - SSW
Pression: 1028.0 hPa 1024.9 hPa -
Précipitation: 0.0 mm    
Historical Graphs
 
 
Données statistiques pour Avril 22, 2017
Heure Température Point de rosée Pression Vent Vitesse du vent Refales Humidité Pluie (taux horaire)
00:01 11.2 °C 8.0 °C 1027.0 hPa West 8.7 km/h 10.1 km/h 79 % 0.0 mm
00:06 11.2 °C 8.0 °C 1026.0 hPa West 9.0 km/h 11.1 km/h 79 % 0.0 mm
00:11 11.2 °C 8.0 °C 1026.0 hPa WSW 5.8 km/h 11.1 km/h 80 % 0.0 mm
00:16 11.1 °C 8.0 °C 1026.0 hPa West 9.0 km/h 10.5 km/h 80 % 0.0 mm
00:21 11.1 °C 8.0 °C 1027.0 hPa WSW 7.9 km/h 10.5 km/h 80 % 0.0 mm
00:26 11.1 °C 8.0 °C 1027.0 hPa West 6.1 km/h 10.1 km/h 81 % 0.0 mm
00:31 11.1 °C 8.0 °C 1027.0 hPa WSW 6.1 km/h 10.1 km/h 81 % 0.0 mm
00:36 11.0 °C 8.0 °C 1027.0 hPa West 5.5 km/h 7.9 km/h 81 % 0.0 mm
00:41 11.0 °C 8.0 °C 1027.0 hPa West 6.9 km/h 9.3 km/h 81 % 0.0 mm
00:46 11.0 °C 8.0 °C 1027.0 hPa Calm   9.3 km/h 82 % 0.0 mm
00:51 11.0 °C 8.0 °C 1027.0 hPa West 8.7 km/h 9.0 km/h 82 % 0.0 mm
00:56 10.9 °C 8.0 °C 1027.0 hPa West 5.0 km/h 9.7 km/h 83 % 0.0 mm
00:59 10.9 °C 8.0 °C 1027.0 hPa WSW 6.9 km/h 9.7 km/h 83 % 0.0 mm
01:04 10.9 °C 8.0 °C 1027.0 hPa WSW 4.7 km/h 8.7 km/h 83 % 0.0 mm
01:09 10.9 °C 9.0 °C 1027.0 hPa West 6.9 km/h 9.0 km/h 84 % 0.0 mm
01:14 10.9 °C 9.0 °C 1027.0 hPa WSW 6.9 km/h 9.0 km/h 84 % 0.0 mm
01:15 10.9 °C 9.0 °C 1027.0 hPa WSW 9.3 km/h 9.3 km/h 84 % 0.0 mm
01:20 10.8 °C 8.0 °C 1027.0 hPa WSW 7.6 km/h 10.5 km/h 84 % 0.0 mm
01:25 10.8 °C 8.0 °C 1027.0 hPa West 7.9 km/h 10.5 km/h 84 % 0.0 mm
01:30 10.8 °C 9.0 °C 1027.0 hPa West 5.5 km/h 9.3 km/h 85 % 0.0 mm
01:35 10.8 °C 9.0 °C 1027.0 hPa West 5.8 km/h 9.3 km/h 85 % 0.0 mm
01:40 10.8 °C 9.0 °C 1027.0 hPa West 6.1 km/h 9.0 km/h 85 % 0.0 mm
01:45 10.8 °C 9.0 °C 1027.0 hPa West 6.1 km/h 9.0 km/h 85 % 0.0 mm
01:50 10.7 °C 9.0 °C 1027.0 hPa West 7.9 km/h 9.0 km/h 85 % 0.0 mm
01:55 10.7 °C 9.0 °C 1027.0 hPa WSW 9.0 km/h 9.0 km/h 85 % 0.0 mm
02:00 10.7 °C 9.0 °C 1027.0 hPa West 6.9 km/h 9.0 km/h 86 % 0.0 mm
02:05 10.7 °C 9.0 °C 1027.0 hPa WSW 9.0 km/h 9.0 km/h 86 % 0.0 mm
02:10 10.7 °C 9.0 °C 1027.0 hPa West 9.0 km/h 9.0 km/h 86 % 0.0 mm
02:15 10.6 °C 9.0 °C 1027.0 hPa West 6.4 km/h 9.0 km/h 86 % 0.0 mm
02:20 10.6 °C 9.0 °C 1027.0 hPa WSW 6.4 km/h 7.9 km/h 86 % 0.0 mm
02:25 10.6 °C 9.0 °C 1026.0 hPa WSW 7.6 km/h 7.9 km/h 86 % 0.0 mm
02:30 10.6 °C 9.0 °C 1026.0 hPa West 7.9 km/h 7.9 km/h 86 % 0.0 mm
02:35 10.6 °C 9.0 °C 1026.0 hPa Calm   8.7 km/h 86 % 0.0 mm
02:40 10.5 °C 9.0 °C 1026.0 hPa Calm   8.7 km/h 87 % 0.0 mm
02:45 10.5 °C 9.0 °C 1026.0 hPa West 5.5 km/h 7.2 km/h 87 % 0.0 mm
02:46 10.5 °C 9.0 °C 1026.0 hPa WSW 5.0 km/h 7.2 km/h 87 % 0.0 mm
02:51 10.5 °C 9.0 °C 1026.0 hPa Calm   7.2 km/h 87 % 0.0 mm
02:56 10.5 °C 9.0 °C 1026.0 hPa Calm   6.4 km/h 87 % 0.0 mm
03:01 10.4 °C 9.0 °C 1026.0 hPa Calm   6.9 km/h 87 % 0.0 mm
03:06 10.4 °C 9.0 °C 1026.0 hPa West 6.9 km/h 6.9 km/h 87 % 0.0 mm
03:11 10.4 °C 9.0 °C 1026.0 hPa West 6.9 km/h 8.7 km/h 87 % 0.0 mm
03:16 10.4 °C 9.0 °C 1026.0 hPa Calm   8.7 km/h 88 % 0.0 mm
03:21 10.4 °C 9.0 °C 1026.0 hPa Calm   8.7 km/h 88 % 0.0 mm
03:26 10.4 °C 9.0 °C 1026.0 hPa Calm   6.4 km/h 88 % 0.0 mm
03:31 10.4 °C 9.0 °C 1026.0 hPa Calm   6.4 km/h 88 % 0.0 mm
03:36 10.4 °C 9.0 °C 1026.0 hPa Calm     88 % 0.0 mm
03:41 10.4 °C 9.0 °C 1026.0 hPa Calm     89 % 0.0 mm
03:46 10.3 °C 9.0 °C 1026.0 hPa Calm     89 % 0.0 mm
03:51 10.3 °C 9.0 °C 1026.0 hPa Calm     89 % 0.0 mm
03:56 10.3 °C 9.0 °C 1026.0 hPa Calm     89 % 0.0 mm
04:01 10.3 °C 9.0 °C 1026.0 hPa Calm     89 % 0.0 mm
04:07 10.3 °C 9.0 °C 1026.0 hPa Calm     89 % 0.0 mm
04:12 10.2 °C 9.0 °C 1026.0 hPa Calm     89 % 0.0 mm
04:17 10.2 °C 9.0 °C 1026.0 hPa Calm     89 % 0.0 mm
04:22 10.2 °C 9.0 °C 1024.9 hPa Calm     89 % 0.0 mm
04:27 10.2 °C 9.0 °C 1024.9 hPa Calm     89 % 0.0 mm
04:32 10.2 °C 9.0 °C 1024.9 hPa WNW 4.7 km/h 6.1 km/h 90 % 0.0 mm
04:37 10.2 °C 9.0 °C 1024.9 hPa West 5.8 km/h 7.9 km/h 90 % 0.0 mm
04:42 10.2 °C 9.0 °C 1024.9 hPa West 5.0 km/h 9.0 km/h 90 % 0.0 mm
04:47 10.2 °C 9.0 °C 1024.9 hPa West 5.0 km/h 9.0 km/h 90 % 0.0 mm
04:52 10.2 °C 9.0 °C 1024.9 hPa West 5.0 km/h 7.6 km/h 90 % 0.0 mm
04:57 10.2 °C 9.0 °C 1024.9 hPa WSW 5.0 km/h 7.6 km/h 90 % 0.0 mm
05:02 10.2 °C 9.0 °C 1024.9 hPa WNW 5.0 km/h 6.9 km/h 90 % 0.0 mm
05:07 10.2 °C 9.0 °C 1024.9 hPa West 4.3 km/h 9.7 km/h 90 % 0.0 mm
05:12 10.2 °C 9.0 °C 1024.9 hPa West 2.6 km/h 9.7 km/h 89 % 0.0 mm
05:17 10.2 °C 9.0 °C 1024.9 hPa West 5.5 km/h 8.7 km/h 89 % 0.0 mm
05:22 10.2 °C 9.0 °C 1024.9 hPa Calm   6.4 km/h 89 % 0.0 mm
05:27 10.2 °C 9.0 °C 1024.9 hPa West 3.5 km/h 6.1 km/h 89 % 0.0 mm
05:32 10.2 °C 9.0 °C 1024.9 hPa West 5.8 km/h 6.9 km/h 89 % 0.0 mm
05:37 10.2 °C 9.0 °C 1024.9 hPa WNW 5.0 km/h 6.9 km/h 89 % 0.0 mm
05:42 10.3 °C 9.0 °C 1024.9 hPa Calm   6.1 km/h 88 % 0.0 mm
05:47 10.2 °C 9.0 °C 1024.9 hPa West 4.7 km/h 6.1 km/h 88 % 0.0 mm
05:52 10.2 °C 9.0 °C 1024.9 hPa WSW 6.1 km/h 6.9 km/h 88 % 0.0 mm
05:57 10.2 °C 9.0 °C 1024.9 hPa West 5.0 km/h 6.9 km/h 88 % 0.0 mm
06:02 10.2 °C 9.0 °C 1024.9 hPa West 6.1 km/h 6.9 km/h 87 % 0.0 mm
06:07 10.2 °C 9.0 °C 1024.9 hPa West 5.0 km/h 6.9 km/h 87 % 0.0 mm
06:13 10.2 °C 9.0 °C 1024.9 hPa West 4.7 km/h 6.9 km/h 87 % 0.0 mm
06:18 10.2 °C 9.0 °C 1024.9 hPa West 5.0 km/h 6.9 km/h 87 % 0.0 mm
06:23 10.2 °C 9.0 °C 1024.9 hPa West 4.3 km/h 7.6 km/h 87 % 0.0 mm
06:28 10.2 °C 8.0 °C 1024.9 hPa Calm   7.6 km/h 86 % 0.0 mm
06:33 10.2 °C 8.0 °C 1024.9 hPa West 6.1 km/h 6.1 km/h 86 % 0.0 mm
06:38 10.2 °C 8.0 °C 1024.9 hPa West 4.3 km/h 6.1 km/h 86 % 0.0 mm
06:43 10.2 °C 8.0 °C 1024.9 hPa West 5.8 km/h 7.2 km/h 86 % 0.0 mm
06:48 10.2 °C 8.0 °C 1024.9 hPa Calm   7.2 km/h 86 % 0.0 mm
06:53 10.2 °C 8.0 °C 1024.9 hPa WSW 5.8 km/h 5.8 km/h 86 % 0.0 mm
06:58 10.3 °C 8.0 °C 1024.9 hPa WNW 2.6 km/h 6.4 km/h 86 % 0.0 mm
07:03 10.4 °C 8.0 °C 1024.9 hPa WSW 6.4 km/h 9.0 km/h 86 % 0.0 mm
07:08 10.4 °C 8.0 °C 1024.9 hPa West 5.8 km/h 9.0 km/h 86 % 0.0 mm
07:13 10.6 °C 9.0 °C 1024.9 hPa Calm   9.0 km/h 86 % 0.0 mm
07:18 10.7 °C 9.0 °C 1024.9 hPa NW 4.3 km/h 9.0 km/h 86 % 0.0 mm
07:23 10.8 °C 9.0 °C 1024.9 hPa Calm   7.9 km/h 85 % 0.0 mm
07:28 10.9 °C 9.0 °C 1024.9 hPa North 1.4 km/h 7.9 km/h 85 % 0.0 mm
07:31 10.9 °C 9.0 °C 1024.9 hPa North 5.0 km/h 5.8 km/h 85 % 0.0 mm
07:36 10.9 °C 9.0 °C 1024.9 hPa West 2.6 km/h 6.9 km/h 85 % 0.0 mm
07:41 10.9 °C 9.0 °C 1024.9 hPa NW 7.9 km/h 7.9 km/h 85 % 0.0 mm
07:46 11.0 °C 9.0 °C 1024.9 hPa Calm   9.0 km/h 85 % 0.0 mm
07:51 11.0 °C 9.0 °C 1024.9 hPa WNW 7.9 km/h 10.1 km/h 85 % 0.0 mm
07:56 11.0 °C 9.0 °C 1024.9 hPa NNW 6.9 km/h 10.1 km/h 85 % 0.0 mm
08:01 11.0 °C 9.0 °C 1024.9 hPa NNE 9.3 km/h 10.1 km/h 85 % 0.0 mm
08:07 11.0 °C 9.0 °C 1024.9 hPa North 12.2 km/h 14.0 km/h 86 % 0.0 mm
08:12 10.9 °C 9.0 °C 1024.9 hPa North 10.1 km/h 14.0 km/h 87 % 0.0 mm
08:17 10.8 °C 9.0 °C 1024.9 hPa NNW 13.0 km/h 14.0 km/h 87 % 0.0 mm
08:22 10.6 °C 9.0 °C 1026.0 hPa NE 14.0 km/h 17.7 km/h 88 % 0.0 mm
08:27 10.2 °C 9.0 °C 1026.0 hPa ENE 13.7 km/h 20.9 km/h 89 % 0.0 mm
08:32 9.7 °C 8.0 °C 1026.0 hPa ENE 23.3 km/h 24.5 km/h 90 % 0.0 mm
08:37 9.4 °C 8.0 °C 1027.0 hPa NNE 16.9 km/h 24.5 km/h 90 % 0.0 mm
08:41 9.2 °C 8.0 °C 1027.0 hPa NE 13.0 km/h 23.3 km/h 91 % 0.0 mm
08:46 9.1 °C 8.0 °C 1027.0 hPa NE 15.1 km/h 20.1 km/h 91 % 0.0 mm
08:51 8.9 °C 8.0 °C 1027.0 hPa NNE 12.2 km/h 19.1 km/h 92 % 0.0 mm
08:56 8.8 °C 8.0 °C 1027.0 hPa ENE 12.2 km/h 19.1 km/h 92 % 0.0 mm
09:01 8.7 °C 8.0 °C 1027.0 hPa NE 6.4 km/h 18.0 km/h 92 % 0.0 mm
09:05 8.6 °C 8.0 °C 1027.0 hPa NNE 9.7 km/h 18.0 km/h 93 % 0.0 mm
09:10 8.6 °C 8.0 °C 1027.0 hPa ENE 6.1 km/h 17.2 km/h 93 % 0.0 mm
09:15 8.6 °C 8.0 °C 1027.0 hPa NE 13.0 km/h 15.4 km/h 93 % 0.0 mm
09:20 8.6 °C 8.0 °C 1027.0 hPa NE 16.6 km/h 16.9 km/h 93 % 0.0 mm
09:25 8.6 °C 8.0 °C 1027.0 hPa NNE 12.6 km/h 18.0 km/h 94 % 0.0 mm
09:30 8.7 °C 8.0 °C 1027.0 hPa NE 10.1 km/h 18.0 km/h 94 % 0.0 mm
09:35 8.6 °C 8.0 °C 1027.0 hPa NE 15.1 km/h 17.7 km/h 94 % 0.0 mm
09:40 8.6 °C 8.0 °C 1027.0 hPa NE 14.0 km/h 16.9 km/h 94 % 0.0 mm
09:45 8.6 °C 8.0 °C 1027.0 hPa NE 7.6 km/h 16.9 km/h 94 % 0.0 mm
09:50 8.7 °C 8.0 °C 1027.0 hPa ENE 8.7 km/h 14.0 km/h 94 % 0.0 mm
09:55 8.7 °C 8.0 °C 1027.0 hPa NE 11.9 km/h 15.8 km/h 94 % 0.0 mm
10:00 8.8 °C 8.0 °C 1027.0 hPa ENE 12.2 km/h 15.8 km/h 93 % 0.0 mm
10:05 8.7 °C 8.0 °C 1027.0 hPa East 12.6 km/h 15.4 km/h 91 % 0.0 mm
10:10 8.7 °C 7.0 °C 1028.0 hPa East 9.3 km/h 15.4 km/h 90 % 0.0 mm
10:15 8.9 °C 7.0 °C 1028.0 hPa NE 10.5 km/h 14.3 km/h 88 % 0.0 mm
10:20 9.0 °C 7.0 °C 1028.0 hPa NE 8.7 km/h 13.7 km/h 86 % 0.0 mm
10:25 9.1 °C 7.0 °C 1026.0 hPa East 10.1 km/h 12.6 km/h 86 % 0.0 mm
10:30 9.2 °C 7.0 °C 1026.0 hPa NE 7.9 km/h 12.2 km/h 86 % 0.0 mm
10:35 9.6 °C 8.0 °C 1026.0 hPa East 6.1 km/h 10.5 km/h 86 % 0.0 mm
10:41 10.0 °C 8.0 °C 1027.0 hPa East 6.9 km/h 10.5 km/h 86 % 0.0 mm
10:46 10.2 °C 8.0 °C 1027.0 hPa ENE 5.5 km/h 10.5 km/h 86 % 0.0 mm
10:51 10.2 °C 8.0 °C 1027.0 hPa ENE 6.9 km/h 13.0 km/h 85 % 0.0 mm
10:56 10.1 °C 8.0 °C 1027.0 hPa ENE 3.2 km/h 13.0 km/h 85 % 0.0 mm
11:01 10.2 °C 8.0 °C 1027.0 hPa NE 4.7 km/h 9.3 km/h 85 % 0.0 mm
11:02 10.2 °C 8.0 °C 1027.0 hPa Calm   8.7 km/h 85 % 0.0 mm
11:07 10.4 °C 8.0 °C 1027.0 hPa ENE 1.4 km/h 6.9 km/h 85 % 0.0 mm
11:12 10.6 °C 9.0 °C 1027.0 hPa ENE 8.7 km/h 9.7 km/h 85 % 0.0 mm
11:17 10.6 °C 8.0 °C 1027.0 hPa NE 6.1 km/h 9.7 km/h 84 % 0.0 mm
11:22 10.9 °C 9.0 °C 1027.0 hPa NE 4.0 km/h 9.0 km/h 84 % 0.0 mm
11:27 10.9 °C 9.0 °C 1027.0 hPa NE 6.4 km/h 12.2 km/h 84 % 0.0 mm
11:32 11.1 °C 8.0 °C 1027.0 hPa NNE 11.6 km/h 12.2 km/h 83 % 0.0 mm
11:37 11.5 °C 9.0 °C 1027.0 hPa NNE 6.1 km/h 12.2 km/h 82 % 0.0 mm
11:42 11.7 °C 9.0 °C 1027.0 hPa NNE 13.0 km/h 13.0 km/h 82 % 0.0 mm
11:47 11.7 °C 9.0 °C 1027.0 hPa ENE 10.8 km/h 13.0 km/h 80 % 0.0 mm
11:52 11.3 °C 7.0 °C 1027.0 hPa NNE 7.9 km/h 12.2 km/h 76 % 0.0 mm
11:57 11.2 °C 7.0 °C 1027.0 hPa NE 11.6 km/h 12.6 km/h 76 % 0.0 mm
12:02 11.3 °C 7.0 °C 1027.0 hPa NE 9.3 km/h 12.6 km/h 76 % 0.0 mm
12:05 11.2 °C 7.0 °C 1027.0 hPa NNE 10.1 km/h 13.7 km/h 75 % 0.0 mm
12:10 11.5 °C 8.0 °C 1027.0 hPa NNE 5.5 km/h 13.7 km/h 75 % 0.0 mm
12:15 11.6 °C 7.0 °C 1027.0 hPa North 9.7 km/h 12.6 km/h 74 % 0.0 mm
12:20 11.7 °C 7.0 °C 1027.0 hPa NE 8.7 km/h 12.6 km/h 74 % 0.0 mm
12:25 12.0 °C 8.0 °C 1026.0 hPa NE 3.5 km/h 9.7 km/h 74 % 0.0 mm
12:30 12.3 °C 8.0 °C 1026.0 hPa NE 1.4 km/h 9.3 km/h 73 % 0.0 mm
12:35 12.4 °C 8.0 °C 1026.0 hPa Calm   10.1 km/h 72 % 0.0 mm
12:40 12.3 °C 8.0 °C 1027.0 hPa NE 6.4 km/h 10.1 km/h 72 % 0.0 mm
12:42 12.3 °C 8.0 °C 1027.0 hPa East 3.5 km/h 9.7 km/h 72 % 0.0 mm
12:47 12.3 °C 8.0 °C 1027.0 hPa ESE 8.7 km/h 9.3 km/h 71 % 0.0 mm
12:52 13.0 °C 8.0 °C 1027.0 hPa Calm   8.7 km/h 71 % 0.0 mm
12:57 13.6 °C 9.0 °C 1027.0 hPa NE 10.5 km/h 10.5 km/h 70 % 0.0 mm
13:02 13.3 °C 8.0 °C 1027.0 hPa NNE 6.4 km/h 10.5 km/h 68 % 0.0 mm
13:08 13.1 °C 8.0 °C 1027.0 hPa North 4.7 km/h 10.5 km/h 68 % 0.0 mm
13:13 12.5 °C 7.0 °C 1027.0 hPa NNW 5.5 km/h 7.9 km/h 68 % 0.0 mm
13:14 12.5 °C 7.0 °C 1027.0 hPa NE 4.0 km/h 7.9 km/h 68 % 0.0 mm
13:19 12.1 °C 6.0 °C 1027.0 hPa NNE 5.5 km/h 7.9 km/h 67 % 0.0 mm
13:24 11.9 °C 6.0 °C 1027.0 hPa North 6.1 km/h 8.7 km/h 68 % 0.0 mm
13:29 11.8 °C 6.0 °C 1027.0 hPa North 5.5 km/h 8.7 km/h 68 % 0.0 mm
13:34 11.9 °C 6.0 °C 1027.0 hPa NE 2.6 km/h 9.3 km/h 69 % 0.0 mm
13:39 12.7 °C 7.0 °C 1027.0 hPa NE 9.7 km/h 12.6 km/h 69 % 0.0 mm
13:44 13.0 °C 7.0 °C 1027.0 hPa North 9.7 km/h 13.7 km/h 66 % 0.0 mm
13:50 12.8 °C 7.0 °C 1027.0 hPa ENE 7.6 km/h 13.7 km/h 67 % 0.0 mm
13:55 12.2 °C 6.0 °C 1026.0 hPa NE 6.1 km/h 12.6 km/h 65 % 0.0 mm
14:00 11.9 °C 6.0 °C 1026.0 hPa North 8.7 km/h 12.2 km/h 65 % 0.0 mm
14:05 11.8 °C 6.0 °C 1026.0 hPa North 6.4 km/h 11.6 km/h 66 % 0.0 mm
14:10 11.6 °C 6.0 °C 1027.0 hPa NNE 9.0 km/h 11.6 km/h 66 % 0.0 mm
14:15 11.6 °C 6.0 °C 1027.0 hPa NE 9.7 km/h 12.6 km/h 66 % 0.0 mm
14:20 12.0 °C 6.0 °C 1027.0 hPa NNE 6.1 km/h 12.6 km/h 67 % 0.0 mm
14:25 12.9 °C 7.0 °C 1027.0 hPa North 6.4 km/h 13.0 km/h 67 % 0.0 mm
14:30 12.9 °C 7.0 °C 1027.0 hPa NW 9.3 km/h 13.0 km/h 67 % 0.0 mm
14:35 12.7 °C 7.0 °C 1027.0 hPa North 4.7 km/h 12.6 km/h 65 % 0.0 mm
14:40 12.3 °C 6.0 °C 1027.0 hPa NNE 5.0 km/h 9.7 km/h 65 % 0.0 mm
14:45 12.0 °C 6.0 °C 1027.0 hPa North 10.1 km/h 11.9 km/h 65 % 0.0 mm
14:50 11.9 °C 6.0 °C 1027.0 hPa NNW 7.9 km/h 17.2 km/h 66 % 0.0 mm
14:55 12.1 °C 6.0 °C 1027.0 hPa NNE 6.9 km/h 17.2 km/h 66 % 0.0 mm
15:00 12.6 °C 7.0 °C 1027.0 hPa ENE 11.6 km/h 16.3 km/h 66 % 0.0 mm
15:05 13.2 °C 7.0 °C 1027.0 hPa NE 12.6 km/h 16.3 km/h 66 % 0.0 mm
15:10 13.0 °C 7.0 °C 1027.0 hPa NE 10.5 km/h 15.8 km/h 64 % 0.0 mm
15:16 12.9 °C 6.0 °C 1027.0 hPa North 10.5 km/h 15.8 km/h 63 % 0.0 mm
15:21 12.9 °C 6.0 °C 1027.0 hPa NNE 6.9 km/h 18.3 km/h 63 % 0.0 mm
15:26 13.4 °C 6.0 °C 1027.0 hPa ENE 7.9 km/h 18.3 km/h 60 % 0.0 mm
15:31 13.7 °C 6.0 °C 1027.0 hPa North 9.0 km/h 15.4 km/h 59 % 0.0 mm
15:36 13.9 °C 6.0 °C 1027.0 hPa NNE 3.2 km/h 17.7 km/h 57 % 0.0 mm
15:41 14.0 °C 5.0 °C 1027.0 hPa North 9.3 km/h 17.7 km/h 54 % 0.0 mm
15:46 13.8 °C 5.0 °C 1027.0 hPa NNE 7.6 km/h 17.2 km/h 53 % 0.0 mm
15:51 13.8 °C 5.0 °C 1027.0 hPa NE 9.0 km/h 15.8 km/h 53 % 0.0 mm
15:56 14.2 °C 5.0 °C 1027.0 hPa North 14.0 km/h 14.0 km/h 53 % 0.0 mm
16:01 13.7 °C 4.0 °C 1027.0 hPa North 12.6 km/h 15.8 km/h 52 % 0.0 mm
16:06 13.5 °C 4.0 °C 1027.0 hPa North 12.6 km/h 18.3 km/h 51 % 0.0 mm
16:11 13.4 °C 3.0 °C 1027.0 hPa NE 16.3 km/h 22.4 km/h 50 % 0.0 mm
16:16 13.5 °C 4.0 °C 1027.0 hPa NE 10.5 km/h 22.4 km/h 50 % 0.0 mm
16:21 13.6 °C 4.0 °C 1027.0 hPa NE 8.7 km/h 19.1 km/h 50 % 0.0 mm
16:26 14.0 °C 4.0 °C 1027.0 hPa North 20.1 km/h 20.1 km/h 49 % 0.0 mm
16:31 14.0 °C 4.0 °C 1027.0 hPa NNE 14.3 km/h 20.1 km/h 49 % 0.0 mm
16:35 14.2 °C 4.0 °C 1027.0 hPa North 6.9 km/h 20.1 km/h 49 % 0.0 mm
16:40 14.3 °C 4.0 °C 1027.0 hPa North 16.3 km/h 22.7 km/h 49 % 0.0 mm
16:45 14.2 °C 3.0 °C 1027.0 hPa North 17.2 km/h 22.7 km/h 47 % 0.0 mm
16:50 14.3 °C 3.0 °C 1027.0 hPa NNE 15.1 km/h 21.2 km/h 47 % 0.0 mm
16:55 14.5 °C 4.0 °C 1027.0 hPa NNW 8.7 km/h 21.2 km/h 47 % 0.0 mm
17:00 14.3 °C 3.0 °C 1027.0 hPa NE 12.2 km/h 20.1 km/h 46 % 0.0 mm
17:05 14.1 °C 3.0 °C 1027.0 hPa North 4.0 km/h 20.1 km/h 46 % 0.0 mm
17:10 14.1 °C 3.0 °C 1027.0 hPa North 5.5 km/h 17.7 km/h 46 % 0.0 mm
17:15 14.7 °C 3.0 °C 1027.0 hPa North 10.1 km/h 14.0 km/h 46 % 0.0 mm
17:20 15.1 °C 4.0 °C 1027.0 hPa North 11.1 km/h 18.3 km/h 46 % 0.0 mm
17:25 14.9 °C 3.0 °C 1027.0 hPa NE 13.0 km/h 18.3 km/h 45 % 0.0 mm
17:30 14.3 °C 2.0 °C 1027.0 hPa North 14.0 km/h 23.8 km/h 43 % 0.0 mm
17:35 14.0 °C 2.0 °C 1027.0 hPa North 14.8 km/h 23.8 km/h 43 % 0.0 mm
17:40 13.5 °C 2.0 °C 1026.0 hPa North 19.8 km/h 23.8 km/h 44 % 0.0 mm
17:45 13.3 °C 2.0 °C 1026.0 hPa NNE 15.1 km/h 21.2 km/h 45 % 0.0 mm
17:50 13.4 °C 2.0 °C 1026.0 hPa NNE 15.4 km/h 17.2 km/h 45 % 0.0 mm
17:55 13.9 °C 3.0 °C 1026.0 hPa NNE 9.7 km/h 18.0 km/h 45 % 0.0 mm
18:00 14.2 °C 3.0 °C 1026.0 hPa NNE 12.6 km/h 18.0 km/h 44 % 0.0 mm
18:05 13.7 °C 1.0 °C 1026.0 hPa NE 13.7 km/h 20.6 km/h 43 % 0.0 mm
18:10 13.9 °C 3.0 °C 1026.0 hPa North 10.1 km/h 20.6 km/h 45 % 0.0 mm
18:15 13.6 °C 2.0 °C 1026.0 hPa North 6.9 km/h 17.7 km/h 45 % 0.0 mm
18:20 14.1 °C 3.0 °C 1026.0 hPa North 6.4 km/h 17.7 km/h 45 % 0.0 mm
18:25 14.0 °C 2.0 °C 1026.0 hPa ENE 20.6 km/h 20.6 km/h 43 % 0.0 mm
18:30 14.0 °C 2.0 °C 1026.0 hPa North 11.6 km/h 23.8 km/h 43 % 0.0 mm
18:35 13.9 °C 2.0 °C 1026.0 hPa NNW 13.7 km/h 23.8 km/h 44 % 0.0 mm
18:40 14.0 °C 2.0 °C 1026.0 hPa NE 11.6 km/h 19.5 km/h 43 % 0.0 mm
18:45 13.8 °C 1.0 °C 1026.0 hPa NNE 14.3 km/h 17.2 km/h 43 % 0.0 mm
18:50 13.8 °C 2.0 °C 1026.0 hPa NNE 12.2 km/h 16.9 km/h 44 % 0.0 mm
18:56 13.6 °C 1.0 °C 1026.0 hPa NNW 8.7 km/h 16.9 km/h 43 % 0.0 mm
19:01 13.5 °C 1.0 °C 1026.0 hPa North 12.6 km/h 16.9 km/h 43 % 0.0 mm
19:06 13.3 °C 2.0 °C 1026.0 hPa NNE 17.7 km/h 17.7 km/h 44 % 0.0 mm
19:11 13.2 °C 2.0 °C 1026.0 hPa NNW 7.6 km/h 17.7 km/h 44 % 0.0 mm
19:16 13.1 °C 1.0 °C 1026.0 hPa NNE 14.0 km/h 16.3 km/h 44 % 0.0 mm
19:21 12.9 °C 2.0 °C 1026.0 hPa North 13.7 km/h 16.9 km/h 45 % 0.0 mm
19:26 12.7 °C 1.0 °C 1026.0 hPa NNE 6.1 km/h 16.9 km/h 45 % 0.0 mm
19:31 12.7 °C 1.0 °C 1026.0 hPa NE 5.0 km/h 15.4 km/h 45 % 0.0 mm
19:36 12.5 °C 2.0 °C 1026.0 hPa North 4.3 km/h 14.0 km/h 46 % 0.0 mm
19:41 12.3 °C 1.0 °C 1026.0 hPa North 12.6 km/h 15.1 km/h 45 % 0.0 mm
19:46 11.9 °C 1.0 °C 1026.0 hPa North 6.4 km/h 15.1 km/h 46 % 0.0 mm
19:52 11.6 °C 1.0 °C 1026.0 hPa North 7.6 km/h 14.0 km/h 46 % 0.0 mm
19:57 11.4 °C 0.0 °C 1026.0 hPa North 12.6 km/h 12.6 km/h 46 % 0.0 mm
20:02 11.1 °C 0.0 °C 1026.0 hPa NNE 7.9 km/h 14.8 km/h 47 % 0.0 mm
20:07 10.9 °C 0.0 °C 1026.0 hPa NNE 7.9 km/h 16.9 km/h 47 % 0.0 mm
20:12 10.8 °C 0.0 °C 1026.0 hPa NNW 9.0 km/h 16.9 km/h 48 % 0.0 mm
20:17 10.6 °C 0.0 °C 1026.0 hPa NE 8.7 km/h 15.8 km/h 48 % 0.0 mm
20:22 10.4 °C 0.0 °C 1026.0 hPa North 9.3 km/h 15.8 km/h 49 % 0.0 mm
20:27 10.2 °C 1.0 °C 1026.0 hPa North 7.6 km/h 13.7 km/h 50 % 0.0 mm
20:32 10.1 °C 0.0 °C 1026.0 hPa NE 6.9 km/h 14.0 km/h 50 % 0.0 mm
20:37 9.8 °C 1.0 °C 1026.0 hPa NE 5.0 km/h 14.0 km/h 53 % 0.0 mm
20:42 9.6 °C 1.0 °C 1026.0 hPa NE 9.3 km/h 12.2 km/h 54 % 0.0 mm
20:47 9.5 °C 1.0 °C 1026.0 hPa North 6.9 km/h 10.5 km/h 54 % 0.0 mm
20:52 9.2 °C 1.0 °C 1026.0 hPa NNE 7.9 km/h 10.5 km/h 56 % 0.0 mm
20:57 8.9 °C 1.0 °C 1026.0 hPa North 6.1 km/h 10.1 km/h 57 % 0.0 mm
21:02 8.8 °C 1.0 °C 1026.0 hPa North 6.4 km/h 9.7 km/h 58 % 0.0 mm
21:07 8.7 °C 1.0 °C 1026.0 hPa NNE 5.0 km/h 9.7 km/h 58 % 0.0 mm
21:12 8.6 °C 1.0 °C 1027.0 hPa North 5.8 km/h 10.5 km/h 59 % 0.0 mm
21:17 8.5 °C 1.0 °C 1027.0 hPa North 5.0 km/h 10.5 km/h 59 % 0.0 mm
21:22 8.4 °C 1.0 °C 1027.0 hPa North 3.2 km/h 9.0 km/h 60 % 0.0 mm
21:27 8.2 °C 1.0 °C 1027.0 hPa Calm   9.0 km/h 61 % 0.0 mm
21:32 8.0 °C 1.0 °C 1027.0 hPa Calm   5.0 km/h 61 % 0.0 mm
21:37 7.9 °C 1.0 °C 1027.0 hPa Calm   4.0 km/h 61 % 0.0 mm
21:42 7.9 °C 1.0 °C 1027.0 hPa Calm   1.8 km/h 63 % 0.0 mm
21:47 7.8 °C 1.0 °C 1027.0 hPa NNW 4.0 km/h 5.8 km/h 63 % 0.0 mm
21:52 7.6 °C 1.0 °C 1027.0 hPa Calm   5.8 km/h 63 % 0.0 mm
21:58 7.4 °C 1.0 °C 1027.0 hPa North 3.5 km/h 4.7 km/h 64 % 0.0 mm
22:03 7.1 °C 1.0 °C 1027.0 hPa North 1.4 km/h 4.7 km/h 64 % 0.0 mm
22:08 6.9 °C 1.0 °C 1027.0 hPa Calm   4.3 km/h 65 % 0.0 mm
22:13 6.7 °C 1.0 °C 1027.0 hPa Calm   4.3 km/h 65 % 0.0 mm
22:18 6.7 °C 1.0 °C 1027.0 hPa North 3.2 km/h 4.7 km/h 67 % 0.0 mm
22:24 6.7 °C 1.0 °C 1027.0 hPa NNW 9.3 km/h 9.3 km/h 68 % 0.0 mm
22:29 6.8 °C 1.0 °C 1027.0 hPa NNE 5.5 km/h 9.3 km/h 68 % 0.0 mm
22:34 6.8 °C 1.0 °C 1027.0 hPa NW 5.0 km/h 9.3 km/h 69 % 0.0 mm
22:39 7.0 °C 2.0 °C 1027.0 hPa NNE 6.9 km/h 9.3 km/h 69 % 0.0 mm
22:44 7.1 °C 2.0 °C 1027.0 hPa Calm   9.3 km/h 71 % 0.0 mm
22:49 7.0 °C 2.0 °C 1027.0 hPa Calm   6.9 km/h 71 % 0.0 mm
22:54 6.9 °C 3.0 °C 1027.0 hPa NNE 5.8 km/h 5.8 km/h 72 % 0.0 mm
22:59 6.8 °C 2.0 °C 1027.0 hPa Calm   6.1 km/h 72 % 0.0 mm
23:04 6.9 °C 3.0 °C 1027.0 hPa North 5.5 km/h 6.1 km/h 73 % 0.0 mm
23:09 7.0 °C 3.0 °C 1027.0 hPa Calm   6.1 km/h 73 % 0.0 mm
23:14 7.0 °C 3.0 °C 1026.0 hPa NE 4.3 km/h 6.1 km/h 73 % 0.0 mm
23:19 6.9 °C 3.0 °C 1026.0 hPa NE 4.0 km/h 6.1 km/h 74 % 0.0 mm
23:24 6.8 °C 3.0 °C 1026.0 hPa Calm   4.7 km/h 74 % 0.0 mm
23:29 6.6 °C 3.0 °C 1026.0 hPa Calm   4.7 km/h 74 % 0.0 mm
23:34 6.5 °C 3.0 °C 1026.0 hPa NE 3.5 km/h 4.7 km/h 74 % 0.0 mm
23:39 6.3 °C 2.0 °C 1026.0 hPa NNE 4.3 km/h 5.8 km/h 74 % 0.0 mm
23:44 6.3 °C 2.0 °C 1026.0 hPa North 3.2 km/h 5.8 km/h 74 % 0.0 mm
23:49 6.2 °C 2.0 °C 1026.0 hPa NNW 4.7 km/h 5.8 km/h 74 % 0.0 mm
23:54 6.1 °C 2.0 °C 1026.0 hPa Calm   5.8 km/h 75 % 0.0 mm
23:59 5.9 °C 2.0 °C 1026.0 hPa Calm   3.2 km/h 75 % 0.0 mm
Le Gheer Warneton
Courtoisie de Weather Underground - 2.25 mb

Mise a jour : 16-12-17 15:43:11
Généré par Cumulus 1.9.4 (1099)